Regional Weather Roundup
Issued by NWS Charleston, WV

Home | Current Version | Previous Version | Text Only | Print | Product List | Glossary Off
Versions: 1 2 3 4 5 6 7 8 9 10 11 12 13 14 15 16 17 18 19 20 21 22 23 24 25 26 27

000
ASUS41 KRLX 102310
RWRRLX
West Virginia Regional Weather Roundup
National Weather Service Charleston WV
600 PM EST SUN DEC 10 2017

Note: "fair" indicates few or no clouds below 12,000 feet with no
significant weather and/or obstructions to visibility.

WVZ003-110000-
Northern Panhandle of West Virginia

CITY           SKY/WX    TMP DP  RH WIND       PRES   REMARKS
WHEELING       CLOUDY    30  16  56 SW12G22   29.96R
$$

WVZ009-110000-
Northwest West Virginia

CITY           SKY/WX    TMP DP  RH WIND       PRES   REMARKS
PARKERSBURG    CLOUDY    33  18  53 S9        30.03S
$$

WVZ006-110000-
Western West Virginia

CITY           SKY/WX    TMP DP  RH WIND       PRES   REMARKS
HUNTINGTON     CLOUDY    37  15  40 SW7       30.02S
$$

WVZ015-110000-
West Central West Virginia

CITY           SKY/WX    TMP DP  RH WIND       PRES   REMARKS
CHARLESTON     CLOUDY    37  15  40 SW8       30.02S
$$

WVZ022-031-110000-
North Central West Virginia

CITY           SKY/WX    TMP DP  RH WIND       PRES   REMARKS
CLARKSBURG     CLOUDY    33  19  56 SW6       29.99F
MORGANTOWN     CLOUDY    32  17  54 SW7       29.99S
$$

WVZ025-035-042-045-110000-
Southern West Virginia

CITY           SKY/WX    TMP DP  RH WIND       PRES   REMARKS
BECKLEY        CLOUDY    31  16  54 SW8       29.98S
LOGAN          CLOUDY    36  14  41 CALM      30.00F
BLUEFIELD      CLEAR     29  12  49 W8        30.00S
LEWISBURG      PTCLDY    28  17  61 CALM      29.99F
$$

WVZ047-110000-
Northern Mountains of West Virginia

CITY           SKY/WX    TMP DP  RH WIND       PRES   REMARKS
ELKINS         PTCLDY    28  15  58 S3        29.97R
$$

WVZ052-110000-
Eastern Panhandle of West Virginia

CITY           SKY/WX    TMP DP  RH WIND       PRES   REMARKS
MARTINSBURG    PTCLDY    31  17  56 SW6       30.01R
PETERSBURG     CLOUDY    30  18  61 NW3       30.00S
$$




USA.gov is the U.S. government's official web portal to all federal, state and local government web resources and services.